Time,TemperatureF,DewpointF,PressureIn,WindDirection,WindDirectionDegrees,WindSpeedMPH,WindSpeedGustMPH,Humidity,HourlyPrecipIn,Conditions,Clouds,dailyrainin,SoftwareType,DateUTC
2013-06-11 00:02:00,68.1,67.2,29.84,South,185,5.0,5.0,97,0.00,,,0.00,Wunderground v.1.15,2013-06-11 04:02:00,
2013-06-11 00:03:00,68.1,67.2,29.84,SSW,209,3.0,5.0,97,0.00,,,0.00,Wunderground v.1.15,2013-06-11 04:03:00,
2013-06-11 00:06:00,68.0,67.4,29.84,SSW,203,2.0,7.0,98,0.00,,,0.00,Wunderground v.1.15,2013-06-11 04:06:00,
2013-06-11 00:11:00,67.9,67.3,29.84,SSW,198,3.0,3.0,98,0.00,,,0.00,Wunderground v.1.15,2013-06-11 04:11:00,
2013-06-11 00:17:00,68.0,67.4,29.84,SSW,207,0.0,3.0,98,0.00,,,0.00,Wunderground v.1.15,2013-06-11 04:17:00,
2013-06-11 00:22:00,68.0,67.4,29.83,SSW,203,3.0,3.0,98,0.00,,,0.00,Wunderground v.1.15,2013-06-11 04:22:00,
2013-06-11 00:28:00,68.0,67.4,29.83,SSW,208,4.0,7.0,98,0.00,,,0.00,Wunderground v.1.15,2013-06-11 04:28:00,
2013-06-11 00:34:00,68.1,67.5,29.83,South,175,0.0,3.0,98,0.00,,,0.00,Wunderground v.1.15,2013-06-11 04:34:00,
2013-06-11 00:40:00,68.1,67.5,29.83,South,190,0.0,2.0,98,0.00,,,0.00,Wunderground v.1.15,2013-06-11 04:40:00,
2013-06-11 00:46:00,68.1,67.5,29.83,SW,217,2.0,5.0,98,0.00,,,0.00,Wunderground v.1.15,2013-06-11 04:46:00,
2013-06-11 00:51:00,68.1,67.5,29.83,SSW,200,3.0,3.0,98,0.00,,,0.00,Wunderground v.1.15,2013-06-11 04:51:00,
2013-06-11 00:57:00,68.1,67.5,29.83,SSW,207,5.0,7.0,98,0.00,,,0.00,Wunderground v.1.15,2013-06-11 04:57:00,
2013-06-11 01:03:00,68.0,67.4,29.83,South,188,2.0,4.0,98,0.00,,,0.00,Wunderground v.1.15,2013-06-11 05:03:00,
2013-06-11 01:08:00,68.0,67.4,29.83,SSW,194,2.0,7.0,98,0.00,,,0.00,Wunderground v.1.15,2013-06-11 05:08:00,
2013-06-11 01:14:00,68.0,67.4,29.83,SSW,209,2.0,4.0,98,0.00,,,0.00,Wunderground v.1.15,2013-06-11 05:14:00,
2013-06-11 01:20:00,68.0,67.4,29.83,SSW,211,4.0,4.0,98,0.00,,,0.00,Wunderground v.1.15,2013-06-11 05:20:00,
2013-06-11 01:26:00,68.0,67.4,29.82,South,185,4.0,4.0,98,0.00,,,0.00,Wunderground v.1.15,2013-06-11 05:26:00,
2013-06-11 01:32:00,67.9,67.3,29.82,SSW,207,0.0,2.0,98,0.00,,,0.00,Wunderground v.1.15,2013-06-11 05:32:00,
2013-06-11 01:38:00,67.8,67.2,29.82,SSW,196,4.0,4.0,98,0.00,,,0.00,Wunderground v.1.15,2013-06-11 05:38:00,
2013-06-11 01:43:00,67.7,66.8,29.82,SSW,194,0.0,3.0,97,0.00,,,0.00,Wunderground v.1.15,2013-06-11 05:43:00,
2013-06-11 01:49:00,67.7,66.8,29.82,SSW,212,2.0,3.0,97,0.00,,,0.00,Wunderground v.1.15,2013-06-11 05:49:00,
2013-06-11 01:54:00,67.7,66.8,29.82,SSW,204,2.0,2.0,97,0.00,,,0.00,Wunderground v.1.15,2013-06-11 05:54:00,
2013-06-11 02:00:00,67.6,66.7,29.82,SSW,200,6.0,6.0,97,0.00,,,0.00,Wunderground v.1.15,2013-06-11 06:00:00,
2013-06-11 02:05:00,67.6,66.7,29.82,SSW,205,1.0,6.0,97,0.00,,,0.00,Wunderground v.1.15,2013-06-11 06:05:00,
2013-06-11 02:10:00,67.5,66.9,29.82,SW,215,2.0,3.0,98,0.00,,,0.00,Wunderground v.1.15,2013-06-11 06:10:00,
2013-06-11 02:15:00,67.5,66.9,29.82,WNW,301,1.0,7.0,98,0.00,,,0.00,Wunderground v.1.15,2013-06-11 06:15:00,
2013-06-11 02:20:00,67.5,66.9,29.81,SW,217,2.0,2.0,98,0.00,,,0.00,Wunderground v.1.15,2013-06-11 06:20:00,
2013-06-11 02:25:00,67.4,66.8,29.81,SSW,196,2.0,6.0,98,0.00,,,0.00,Wunderground v.1.15,2013-06-11 06:25:00,
2013-06-11 02:30:00,67.3,66.7,29.81,SSW,192,4.0,5.0,98,0.00,,,0.00,Wunderground v.1.15,2013-06-11 06:30:00,
2013-06-11 02:35:00,67.2,66.6,29.81,SW,215,3.0,8.0,98,0.00,,,0.00,Wunderground v.1.15,2013-06-11 06:35:00,
2013-06-11 02:40:00,67.2,66.6,29.81,SSW,200,0.0,2.0,98,0.00,,,0.00,Wunderground v.1.15,2013-06-11 06:40:00,
2013-06-11 02:45:00,67.1,66.5,29.82,South,189,1.0,5.0,98,0.00,,,0.00,Wunderground v.1.15,2013-06-11 06:45:00,
2013-06-11 02:50:00,67.1,66.5,29.82,SSW,197,2.0,3.0,98,0.00,,,0.00,Wunderground v.1.15,2013-06-11 06:50:00,
2013-06-11 02:55:00,67.1,66.5,29.81,SSW,194,3.0,6.0,98,0.00,,,0.00,Wunderground v.1.15,2013-06-11 06:55:00,
2013-06-11 03:00:00,67.1,66.5,29.81,South,180,2.0,6.0,98,0.00,,,0.00,Wunderground v.1.15,2013-06-11 07:00:00,
2013-06-11 03:05:00,67.0,66.4,29.81,SW,220,1.0,7.0,98,0.00,,,0.00,Wunderground v.1.15,2013-06-11 07:05:00,
2013-06-11 03:10:00,66.9,66.3,29.81,SSW,199,0.0,2.0,98,0.00,,,0.00,Wunderground v.1.15,2013-06-11 07:10:00,
2013-06-11 03:15:00,66.9,66.3,29.81,SSW,207,3.0,5.0,98,0.00,,,0.00,Wunderground v.1.15,2013-06-11 07:15:00,
2013-06-11 03:20:00,66.8,66.2,29.81,SSW,207,2.0,2.0,98,0.00,,,0.00,Wunderground v.1.15,2013-06-11 07:20:00,
2013-06-11 03:25:00,66.8,66.2,29.81,South,177,0.0,3.0,98,0.00,,,0.00,Wunderground v.1.15,2013-06-11 07:25:00,
2013-06-11 03:30:00,66.7,66.1,29.81,South,189,0.0,2.0,98,0.00,,,0.00,Wunderground v.1.15,2013-06-11 07:30:00,
2013-06-11 03:35:00,66.7,66.1,29.81,SSW,211,2.0,7.0,98,0.00,,,0.00,Wunderground v.1.15,2013-06-11 07:35:00,
2013-06-11 03:40:00,66.7,66.1,29.81,SSW,211,3.0,4.0,98,0.00,,,0.00,Wunderground v.1.15,2013-06-11 07:40:00,
2013-06-11 03:45:00,66.6,66.0,29.81,SSW,194,4.0,5.0,98,0.00,,,0.00,Wunderground v.1.15,2013-06-11 07:45:00,
2013-06-11 03:50:00,66.6,66.0,29.81,SW,223,1.0,2.0,98,0.00,,,0.00,Wunderground v.1.15,2013-06-11 07:50:00,
2013-06-11 03:55:00,66.5,65.9,29.81,SSW,192,1.0,3.0,98,0.00,,,0.00,Wunderground v.1.15,2013-06-11 07:55:00,
2013-06-11 04:00:00,66.4,65.8,29.81,South,190,0.0,1.0,98,0.00,,,0.00,Wunderground v.1.15,2013-06-11 08:00:00,
2013-06-11 04:05:00,66.4,65.8,29.81,South,187,2.0,4.0,98,0.00,,,0.00,Wunderground v.1.15,2013-06-11 08:05:00,
2013-06-11 04:10:00,66.5,65.9,29.81,SSW,195,2.0,4.0,98,0.00,,,0.00,Wunderground v.1.15,2013-06-11 08:10:00,
2013-06-11 04:15:00,66.4,65.8,29.81,SSW,196,2.0,4.0,98,0.00,,,0.00,Wunderground v.1.15,2013-06-11 08:15:00,
2013-06-11 04:20:00,66.3,65.7,29.81,SSW,212,4.0,4.0,98,0.00,,,0.00,Wunderground v.1.15,2013-06-11 08:20:00,
2013-06-11 04:25:00,66.3,65.7,29.81,SSW,212,1.0,4.0,98,0.00,,,0.00,Wunderground v.1.15,2013-06-11 08:25:00,
2013-06-11 04:30:00,66.1,65.5,29.82,SSW,211,2.0,4.0,98,0.00,,,0.00,Wunderground v.1.15,2013-06-11 08:30:00,
2013-06-11 04:35:00,66.1,65.5,29.82,SSW,211,0.0,4.0,98,0.00,,,0.00,Wunderground v.1.15,2013-06-11 08:35:00,
2013-06-11 04:40:00,66.2,65.6,29.82,South,180,4.0,4.0,98,0.00,,,0.00,Wunderground v.1.15,2013-06-11 08:40:00,
2013-06-11 04:45:00,66.2,65.6,29.82,SW,229,1.0,5.0,98,0.00,,,0.00,Wunderground v.1.15,2013-06-11 08:45:00,
2013-06-11 04:50:00,66.2,65.6,29.82,SW,217,2.0,4.0,98,0.00,,,0.00,Wunderground v.1.15,2013-06-11 08:50:00,
2013-06-11 04:55:00,66.2,65.6,29.82,South,177,2.0,5.0,98,0.00,,,0.00,Wunderground v.1.15,2013-06-11 08:55:00,
2013-06-11 05:00:00,66.2,65.6,29.82,SSW,195,1.0,3.0,98,0.00,,,0.00,Wunderground v.1.15,2013-06-11 09:00:00,
2013-06-11 05:05:00,66.2,65.6,29.81,SSW,204,1.0,5.0,98,0.00,,,0.00,Wunderground v.1.15,2013-06-11 09:05:00,
2013-06-11 05:10:00,66.1,65.5,29.82,SSW,198,3.0,3.0,98,0.00,,,0.00,Wunderground v.1.15,2013-06-11 09:10:00,
2013-06-11 05:15:00,66.1,65.5,29.82,South,185,0.0,3.0,98,0.00,,,0.00,Wunderground v.1.15,2013-06-11 09:15:00,
2013-06-11 05:20:00,66.1,65.5,29.82,SSW,207,0.0,2.0,98,0.00,,,0.00,Wunderground v.1.15,2013-06-11 09:20:00,
2013-06-11 05:25:00,66.1,65.5,29.82,SSW,204,0.0,4.0,98,0.00,,,0.00,Wunderground v.1.15,2013-06-11 09:25:00,
2013-06-11 05:30:00,66.0,65.4,29.82,SSW,200,3.0,3.0,98,0.00,,,0.00,Wunderground v.1.15,2013-06-11 09:30:00,
2013-06-11 05:35:00,66.0,65.4,29.82,SW,220,2.0,5.0,98,0.00,,,0.00,Wunderground v.1.15,2013-06-11 09:35:00,
2013-06-11 05:40:00,66.1,65.5,29.82,SSW,213,2.0,2.0,98,0.00,,,0.00,Wunderground v.1.15,2013-06-11 09:40:00,
2013-06-11 05:45:00,66.1,65.5,29.82,SW,221,1.0,4.0,98,0.00,,,0.00,Wunderground v.1.15,2013-06-11 09:45:00,
2013-06-11 05:50:00,66.2,65.6,29.82,SW,215,3.0,5.0,98,0.00,,,0.00,Wunderground v.1.15,2013-06-11 09:50:00,
2013-06-11 05:55:00,66.3,65.7,29.82,SW,222,2.0,7.0,98,0.00,,,0.00,Wunderground v.1.15,2013-06-11 09:55:00,
2013-06-11 06:00:00,66.3,65.7,29.82,SSW,194,6.0,6.0,98,0.00,,,0.00,Wunderground v.1.15,2013-06-11 10:00:00,
2013-06-11 06:05:00,66.3,65.7,29.82,South,190,3.0,6.0,98,0.00,,,0.00,Wunderground v.1.15,2013-06-11 10:05:00,
2013-06-11 06:10:00,66.4,65.8,29.82,South,188,2.0,4.0,98,0.00,,,0.00,Wunderground v.1.15,2013-06-11 10:10:00,
2013-06-11 06:15:00,66.4,65.8,29.82,SSW,198,1.0,4.0,98,0.00,,,0.00,Wunderground v.1.15,2013-06-11 10:15:00,
2013-06-11 06:20:00,66.5,65.9,29.82,SSW,192,0.0,2.0,98,0.00,,,0.00,Wunderground v.1.15,2013-06-11 10:20:00,
2013-06-11 06:25:00,66.5,65.9,29.83,SSW,192,0.0,2.0,98,0.00,,,0.00,Wunderground v.1.15,2013-06-11 10:25:00,
2013-06-11 06:30:00,66.5,65.9,29.83,SW,219,1.0,5.0,98,0.00,,,0.00,Wunderground v.1.15,2013-06-11 10:30:00,
2013-06-11 06:35:00,66.5,65.9,29.82,SSW,204,2.0,5.0,98,0.00,,,0.00,Wunderground v.1.15,2013-06-11 10:35:00,
2013-06-11 06:40:00,66.5,65.9,29.82,South,189,2.0,3.0,98,0.00,,,0.00,Wunderground v.1.15,2013-06-11 10:40:00,
2013-06-11 06:45:00,66.5,65.9,29.83,WSW,238,2.0,4.0,98,0.00,,,0.00,Wunderground v.1.15,2013-06-11 10:45:00,
2013-06-11 06:50:00,66.6,66.0,29.83,South,182,2.0,4.0,98,0.00,,,0.00,Wunderground v.1.15,2013-06-11 10:50:00,
2013-06-11 06:55:00,66.6,66.0,29.84,SW,215,3.0,6.0,98,0.00,,,0.00,Wunderground v.1.15,2013-06-11 10:55:00,
2013-06-11 07:00:00,66.7,66.1,29.83,SSW,194,0.0,3.0,98,0.00,,,0.00,Wunderground v.1.15,2013-06-11 11:00:00,
2013-06-11 07:05:00,66.8,66.2,29.83,SSW,194,0.0,3.0,98,0.00,,,0.00,Wunderground v.1.15,2013-06-11 11:05:00,
2013-06-11 07:10:00,67.0,66.4,29.83,SSW,194,0.0,1.0,98,0.00,,,0.00,Wunderground v.1.15,2013-06-11 11:10:00,
2013-06-11 07:15:00,67.1,66.5,29.83,SSW,194,2.0,2.0,98,0.00,,,0.00,Wunderground v.1.15,2013-06-11 11:15:00,
2013-06-11 07:20:00,67.2,66.6,29.84,SSE,168,2.0,3.0,98,0.00,,,0.00,Wunderground v.1.15,2013-06-11 11:20:00,
2013-06-11 07:25:00,67.1,66.2,29.84,SSW,200,2.0,3.0,97,0.00,,,0.00,Wunderground v.1.15,2013-06-11 11:25:00,
2013-06-11 07:30:00,67.1,66.5,29.84,SSW,209,0.0,3.0,98,0.00,,,0.00,Wunderground v.1.15,2013-06-11 11:30:00,
2013-06-11 07:35:00,67.1,66.5,29.84,SSW,193,2.0,5.0,98,0.00,,,0.00,Wunderground v.1.15,2013-06-11 11:35:00,
2013-06-11 07:40:00,67.4,66.8,29.84,SSW,203,2.0,2.0,98,0.00,,,0.00,Wunderground v.1.15,2013-06-11 11:40:00,
2013-06-11 07:46:00,68.1,67.5,29.84,SSW,204,3.0,5.0,98,0.00,,,0.00,Wunderground v.1.15,2013-06-11 11:46:00,
2013-06-11 07:51:00,67.9,67.0,29.84,SSW,195,2.0,5.0,97,0.00,,,0.00,Wunderground v.1.15,2013-06-11 11:51:00,
2013-06-11 07:56:00,68.3,67.4,29.84,SSW,204,2.0,9.0,97,0.00,,,0.00,Wunderground v.1.15,2013-06-11 11:56:00,
2013-06-11 08:01:00,68.7,67.8,29.84,WSW,244,3.0,4.0,97,0.00,,,0.00,Wunderground v.1.15,2013-06-11 12:01:00,
2013-06-11 08:06:00,68.4,67.2,29.84,South,186,3.0,8.0,96,0.00,,,0.00,Wunderground v.1.15,2013-06-11 12:06:00,
2013-06-11 08:11:00,68.5,67.3,29.84,SSW,204,1.0,4.0,96,0.00,,,0.00,Wunderground v.1.15,2013-06-11 12:11:00,
2013-06-11 08:16:00,68.7,67.5,29.84,SW,215,3.0,6.0,96,0.00,,,0.00,Wunderground v.1.15,2013-06-11 12:16:00,
2013-06-11 08:21:00,69.4,67.9,29.84,South,183,4.0,6.0,95,0.00,,,0.00,Wunderground v.1.15,2013-06-11 12:21:00,
2013-06-11 08:26:00,69.4,67.9,29.84,WSW,254,0.0,10.0,95,0.00,,,0.00,Wunderground v.1.15,2013-06-11 12:26:00,
2013-06-11 08:31:00,70.1,68.3,29.84,South,190,1.0,5.0,94,0.00,,,0.00,Wunderground v.1.15,2013-06-11 12:31:00,
2013-06-11 08:36:00,71.2,69.4,29.84,SSW,207,1.0,6.0,94,0.00,,,0.00,Wunderground v.1.15,2013-06-11 12:36:00,
2013-06-11 08:41:00,71.8,69.3,29.84,SSW,199,0.0,2.0,92,0.00,,,0.00,Wunderground v.1.15,2013-06-11 12:41:00,
2013-06-11 08:46:00,72.0,68.9,29.83,South,184,4.0,5.0,90,0.00,,,0.00,Wunderground v.1.15,2013-06-11 12:46:00,
2013-06-11 08:51:00,72.2,68.4,29.83,SSW,203,0.0,1.0,88,0.00,,,0.00,Wunderground v.1.15,2013-06-11 12:51:00,
2013-06-11 08:56:00,72.4,69.0,29.83,South,186,1.0,2.0,89,0.00,,,0.00,Wunderground v.1.15,2013-06-11 12:56:00,
2013-06-11 09:01:00,73.5,69.4,29.83,SW,214,6.0,6.0,87,0.00,,,0.00,Wunderground v.1.15,2013-06-11 13:01:00,
2013-06-11 09:06:00,74.3,69.8,29.83,South,172,2.0,6.0,86,0.00,,,0.00,Wunderground v.1.15,2013-06-11 13:06:00,
2013-06-11 09:11:00,74.5,70.4,29.84,WSW,241,0.0,2.0,87,0.00,,,0.00,Wunderground v.1.15,2013-06-11 13:11:00,
2013-06-11 09:16:00,74.6,70.5,29.83,SSW,201,2.0,2.0,87,0.00,,,0.00,Wunderground v.1.15,2013-06-11 13:16:00,
2013-06-11 09:21:00,75.0,69.5,29.83,SSW,202,2.0,3.0,83,0.00,,,0.00,Wunderground v.1.15,2013-06-11 13:21:00,
2013-06-11 09:26:00,75.3,69.4,29.83,SW,228,1.0,5.0,82,0.00,,,0.00,Wunderground v.1.15,2013-06-11 13:26:00,
2013-06-11 09:31:00,75.6,68.6,29.83,WSW,253,2.0,4.0,79,0.00,,,0.00,Wunderground v.1.15,2013-06-11 13:31:00,
2013-06-11 09:36:00,75.8,68.8,29.83,SSW,198,5.0,6.0,79,0.00,,,0.00,Wunderground v.1.15,2013-06-11 13:36:00,
2013-06-11 09:41:00,76.1,69.1,29.83,SW,216,2.0,7.0,79,0.00,,,0.00,Wunderground v.1.15,2013-06-11 13:41:00,
2013-06-11 09:46:00,76.3,68.6,29.83,WSW,249,1.0,7.0,77,0.00,,,0.00,Wunderground v.1.15,2013-06-11 13:46:00,
2013-06-11 09:51:00,76.3,67.8,29.83,WNW,292,2.0,5.0,75,0.00,,,0.00,Wunderground v.1.15,2013-06-11 13:51:00,
2013-06-11 09:57:00,76.4,67.9,29.82,SW,216,1.0,8.0,75,0.00,,,0.00,Wunderground v.1.15,2013-06-11 13:57:00,
2013-06-11 10:02:00,76.8,67.9,29.82,SW,230,3.0,7.0,74,0.00,,,0.00,Wunderground v.1.15,2013-06-11 14:02:00,
2013-06-11 10:07:00,76.5,67.2,29.82,West,272,2.0,9.0,73,0.00,,,0.00,Wunderground v.1.15,2013-06-11 14:07:00,
2013-06-11 10:12:00,76.6,66.1,29.82,West,271,3.0,7.0,70,0.00,,,0.00,Wunderground v.1.15,2013-06-11 14:12:00,
2013-06-11 10:17:00,77.1,68.2,29.82,WNW,294,5.0,7.0,74,0.00,,,0.00,Wunderground v.1.15,2013-06-11 14:17:00,
2013-06-11 10:22:00,77.4,69.2,29.82,West,279,4.0,6.0,76,0.00,,,0.00,Wunderground v.1.15,2013-06-11 14:22:00,
2013-06-11 10:27:00,77.6,66.6,29.82,West,266,2.0,6.0,69,0.00,,,0.00,Wunderground v.1.15,2013-06-11 14:27:00,
2013-06-11 10:32:00,77.9,68.5,29.82,WNW,285,4.0,7.0,73,0.00,,,0.00,Wunderground v.1.15,2013-06-11 14:32:00,
2013-06-11 10:37:00,77.7,68.4,29.82,West,269,3.0,9.0,73,0.00,,,0.00,Wunderground v.1.15,2013-06-11 14:37:00,
2013-06-11 10:43:00,78.2,69.2,29.82,WNW,290,5.0,6.0,74,0.00,,,0.00,Wunderground v.1.15,2013-06-11 14:43:00,
2013-06-11 10:48:00,78.5,68.7,29.82,West,268,2.0,7.0,72,0.00,,,0.00,Wunderground v.1.15,2013-06-11 14:48:00,
2013-06-11 10:53:00,78.6,69.6,29.82,West,273,2.0,6.0,74,0.00,,,0.00,Wunderground v.1.15,2013-06-11 14:53:00,
2013-06-11 10:58:00,79.3,69.9,29.82,SSW,202,3.0,6.0,73,0.00,,,0.00,Wunderground v.1.15,2013-06-11 14:58:00,
2013-06-11 11:03:00,78.9,67.4,29.82,West,263,5.0,6.0,68,0.00,,,0.00,Wunderground v.1.15,2013-06-11 15:03:00,
2013-06-11 11:08:00,78.9,68.3,29.82,WNW,300,5.0,10.0,70,0.00,,,0.00,Wunderground v.1.15,2013-06-11 15:08:00,
2013-06-11 11:13:00,78.6,66.7,29.82,WNW,288,4.0,14.0,67,0.00,,,0.00,Wunderground v.1.15,2013-06-11 15:13:00,
2013-06-11 11:18:00,79.1,67.6,29.82,West,280,5.0,14.0,68,0.00,,,0.00,Wunderground v.1.15,2013-06-11 15:18:00,
2013-06-11 11:23:00,79.6,68.5,29.82,West,271,5.0,8.0,69,0.00,,,0.00,Wunderground v.1.15,2013-06-11 15:23:00,
2013-06-11 11:28:00,79.7,66.9,29.82,West,274,3.0,8.0,65,0.00,,,0.00,Wunderground v.1.15,2013-06-11 15:28:00,
2013-06-11 11:33:00,78.8,67.3,29.83,West,262,3.0,4.0,68,0.00,,,0.00,Wunderground v.1.15,2013-06-11 15:33:00,
2013-06-11 11:38:00,77.8,66.0,29.82,WNW,288,6.0,8.0,67,0.00,,,0.00,Wunderground v.1.15,2013-06-11 15:38:00,
2013-06-11 11:43:00,78.7,67.7,29.82,WNW,302,3.0,8.0,69,0.00,,,0.00,Wunderground v.1.15,2013-06-11 15:43:00,
2013-06-11 11:48:00,78.9,66.6,29.83,West,281,7.0,8.0,66,0.00,,,0.00,Wunderground v.1.15,2013-06-11 15:48:00,
2013-06-11 11:53:00,78.5,66.2,29.82,West,280,7.0,8.0,66,0.00,,,0.00,Wunderground v.1.15,2013-06-11 15:53:00,
2013-06-11 11:58:00,79.3,67.4,29.82,West,271,4.0,12.0,67,0.00,,,0.00,Wunderground v.1.15,2013-06-11 15:58:00,
2013-06-11 12:03:00,79.0,66.7,29.82,WNW,282,3.0,7.0,66,0.00,,,0.00,Wunderground v.1.15,2013-06-11 16:03:00,
2013-06-11 12:08:00,78.2,66.3,29.82,West,276,1.0,7.0,67,0.00,,,0.00,Wunderground v.1.15,2013-06-11 16:08:00,
2013-06-11 12:13:00,78.0,67.4,29.82,West,281,5.0,7.0,70,0.00,,,0.00,Wunderground v.1.15,2013-06-11 16:13:00,
2013-06-11 12:18:00,77.9,67.3,29.82,WNW,284,5.0,10.0,70,0.00,,,0.00,Wunderground v.1.15,2013-06-11 16:18:00,
2013-06-11 12:23:00,77.9,66.5,29.82,WNW,287,6.0,10.0,68,0.00,,,0.00,Wunderground v.1.15,2013-06-11 16:23:00,
2013-06-11 12:28:00,78.4,67.0,29.82,West,269,5.0,10.0,68,0.00,,,0.00,Wunderground v.1.15,2013-06-11 16:28:00,
2013-06-11 12:33:00,78.8,67.3,29.82,WNW,299,6.0,12.0,68,0.00,,,0.00,Wunderground v.1.15,2013-06-11 16:33:00,
2013-06-11 12:38:00,78.1,66.7,29.82,West,271,2.0,12.0,68,0.00,,,0.00,Wunderground v.1.15,2013-06-11 16:38:00,
2013-06-11 12:43:00,77.8,67.2,29.82,WNW,288,5.0,7.0,70,0.00,,,0.00,Wunderground v.1.15,2013-06-11 16:43:00,
2013-06-11 12:48:00,77.8,67.6,29.82,West,279,4.0,9.0,71,0.00,,,0.00,Wunderground v.1.15,2013-06-11 16:48:00,
2013-06-11 12:53:00,78.1,67.9,29.82,WNW,300,4.0,9.0,71,0.00,,,0.00,Wunderground v.1.15,2013-06-11 16:53:00,
2013-06-11 12:58:00,79.5,68.9,29.82,West,279,6.0,9.0,70,0.00,,,0.00,Wunderground v.1.15,2013-06-11 16:58:00,
2013-06-11 13:03:00,79.4,68.3,29.82,West,278,6.0,11.0,69,0.00,,,0.00,Wunderground v.1.15,2013-06-11 17:03:00,
2013-06-11 13:08:00,78.5,67.1,29.82,West,272,2.0,11.0,68,0.00,,,0.00,Wunderground v.1.15,2013-06-11 17:08:00,
2013-06-11 13:13:00,78.4,66.1,29.82,WSW,248,4.0,7.0,66,0.00,,,0.00,Wunderground v.1.15,2013-06-11 17:13:00,
2013-06-11 13:18:00,79.3,67.8,29.82,West,275,6.0,11.0,68,0.00,,,0.00,Wunderground v.1.15,2013-06-11 17:18:00,
2013-06-11 13:23:00,79.8,67.9,29.82,West,280,4.0,11.0,67,0.00,,,0.00,Wunderground v.1.15,2013-06-11 17:23:00,
2013-06-11 13:28:00,79.8,66.5,29.82,West,277,5.0,12.0,64,0.00,,,0.00,Wunderground v.1.15,2013-06-11 17:28:00,
2013-06-11 13:33:00,80.4,67.1,29.82,WNW,296,2.0,5.0,64,0.00,,,0.00,Wunderground v.1.15,2013-06-11 17:33:00,
2013-06-11 13:38:00,79.0,66.2,29.82,South,182,1.0,6.0,65,0.00,,,0.00,Wunderground v.1.15,2013-06-11 17:38:00,
2013-06-11 13:43:00,77.8,66.4,29.82,WNW,288,4.0,9.0,68,0.00,,,0.00,Wunderground v.1.15,2013-06-11 17:43:00,
2013-06-11 13:48:00,77.6,66.2,29.82,WSW,254,3.0,9.0,68,0.00,,,0.00,Wunderground v.1.15,2013-06-11 17:48:00,
2013-06-11 13:53:00,78.1,67.9,29.81,WNW,282,0.0,3.0,71,0.00,,,0.00,Wunderground v.1.15,2013-06-11 17:53:00,
2013-06-11 13:58:00,79.6,67.2,29.81,West,275,1.0,7.0,66,0.00,,,0.00,Wunderground v.1.15,2013-06-11 17:58:00,
2013-06-11 14:03:00,80.0,67.2,29.81,WSW,246,2.0,5.0,65,0.00,,,0.00,Wunderground v.1.15,2013-06-11 18:03:00,
2013-06-11 14:08:00,79.7,66.4,29.81,SSW,209,2.0,9.0,64,0.00,,,0.00,Wunderground v.1.15,2013-06-11 18:08:00,
2013-06-11 14:13:00,78.8,66.9,29.81,WNW,285,3.0,7.0,67,0.00,,,0.00,Wunderground v.1.15,2013-06-11 18:13:00,
2013-06-11 14:18:00,78.7,66.8,29.81,West,269,4.0,8.0,67,0.00,,,0.00,Wunderground v.1.15,2013-06-11 18:18:00,
2013-06-11 14:23:00,78.6,65.8,29.81,West,261,6.0,9.0,65,0.00,,,0.00,Wunderground v.1.15,2013-06-11 18:23:00,
2013-06-11 14:28:00,78.2,65.9,29.81,WNW,284,4.0,9.0,66,0.00,,,0.00,Wunderground v.1.15,2013-06-11 18:28:00,
2013-06-11 14:34:00,77.5,65.7,29.81,West,261,5.0,8.0,67,0.00,,,0.00,Wunderground v.1.15,2013-06-11 18:34:00,
2013-06-11 14:39:00,77.4,66.0,29.81,West,270,2.0,8.0,68,0.00,,,0.00,Wunderground v.1.15,2013-06-11 18:39:00,
2013-06-11 14:44:00,77.8,67.2,29.81,WSW,254,3.0,5.0,70,0.00,,,0.00,Wunderground v.1.15,2013-06-11 18:44:00,
2013-06-11 14:49:00,78.5,68.3,29.81,West,278,3.0,7.0,71,0.00,,,0.00,Wunderground v.1.15,2013-06-11 18:49:00,
2013-06-11 14:54:00,78.9,67.0,29.81,West,267,3.0,6.0,67,0.00,,,0.00,Wunderground v.1.15,2013-06-11 18:54:00,
2013-06-11 14:59:00,80.2,67.4,29.81,West,267,4.0,7.0,65,0.00,,,0.00,Wunderground v.1.15,2013-06-11 18:59:00,
2013-06-11 15:04:00,81.1,68.2,29.81,West,272,5.0,9.0,65,0.00,,,0.00,Wunderground v.1.15,2013-06-11 19:04:00,
2013-06-11 15:09:00,81.7,67.9,29.80,NW,307,3.0,9.0,63,0.00,,,0.00,Wunderground v.1.15,2013-06-11 19:09:00,
2013-06-11 15:14:00,81.9,68.5,29.80,West,279,7.0,9.0,64,0.00,,,0.00,Wunderground v.1.15,2013-06-11 19:14:00,
2013-06-11 15:19:00,81.9,69.9,29.80,West,278,5.0,9.0,67,0.00,,,0.00,Wunderground v.1.15,2013-06-11 19:19:00,
2013-06-11 15:24:00,82.2,68.3,29.80,WSW,256,3.0,10.0,63,0.00,,,0.00,Wunderground v.1.15,2013-06-11 19:24:00,
2013-06-11 15:29:00,81.8,68.0,29.80,West,270,4.0,10.0,63,0.00,,,0.00,Wunderground v.1.15,2013-06-11 19:29:00,
2013-06-11 15:34:00,82.0,69.5,29.80,WNW,286,6.0,7.0,66,0.00,,,0.00,Wunderground v.1.15,2013-06-11 19:34:00,
2013-06-11 15:39:00,82.0,67.2,29.80,West,264,5.0,8.0,61,0.00,,,0.00,Wunderground v.1.15,2013-06-11 19:39:00,
2013-06-11 15:44:00,80.2,66.9,29.80,West,271,4.0,6.0,64,0.00,,,0.00,Wunderground v.1.15,2013-06-11 19:44:00,
2013-06-11 15:49:00,80.4,68.0,29.80,SW,230,3.0,7.0,66,0.00,,,0.00,Wunderground v.1.15,2013-06-11 19:49:00,
2013-06-11 15:54:00,82.1,68.7,29.80,WSW,256,4.0,9.0,64,0.00,,,0.00,Wunderground v.1.15,2013-06-11 19:54:00,
2013-06-11 16:00:00,82.7,68.4,29.80,West,279,7.0,7.0,62,0.00,,,0.00,Wunderground v.1.15,2013-06-11 20:00:00,
2013-06-11 16:05:00,82.6,68.3,29.80,West,277,8.0,16.0,62,0.00,,,0.00,Wunderground v.1.15,2013-06-11 20:05:00,
2013-06-11 16:09:00,82.6,67.8,29.79,West,265,2.0,6.0,61,0.00,,,0.00,Wunderground v.1.15,2013-06-11 20:09:00,
2013-06-11 16:14:00,82.3,68.4,29.80,West,266,5.0,7.0,63,0.00,,,0.00,Wunderground v.1.15,2013-06-11 20:14:00,
2013-06-11 16:19:00,80.6,66.8,29.80,WNW,296,6.0,10.0,63,0.00,,,0.00,Wunderground v.1.15,2013-06-11 20:19:00,
2013-06-11 16:24:00,80.9,67.6,29.79,West,279,5.0,9.0,64,0.00,,,0.00,Wunderground v.1.15,2013-06-11 20:24:00,
2013-06-11 16:29:00,81.2,67.4,29.79,WNW,282,5.0,5.0,63,0.00,,,0.00,Wunderground v.1.15,2013-06-11 20:29:00,
2013-06-11 16:35:00,80.2,67.4,29.79,WNW,285,4.0,9.0,65,0.00,,,0.00,Wunderground v.1.15,2013-06-11 20:35:00,
2013-06-11 16:40:00,80.4,67.6,29.79,West,276,3.0,4.0,65,0.00,,,0.00,Wunderground v.1.15,2013-06-11 20:40:00,
2013-06-11 16:45:00,79.9,67.5,29.80,WSW,250,2.0,7.0,66,0.00,,,0.00,Wunderground v.1.15,2013-06-11 20:45:00,
2013-06-11 16:50:00,80.4,68.4,29.80,WNW,288,3.0,3.0,67,0.00,,,0.00,Wunderground v.1.15,2013-06-11 20:50:00,
2013-06-11 16:55:00,80.3,67.9,29.80,NW,311,0.0,8.0,66,0.00,,,0.00,Wunderground v.1.15,2013-06-11 20:55:00,
2013-06-11 17:00:00,80.0,67.6,29.80,WNW,284,5.0,5.0,66,0.00,,,0.00,Wunderground v.1.15,2013-06-11 21:00:00,
2013-06-11 17:05:00,79.5,67.1,29.80,West,275,4.0,8.0,66,0.00,,,0.00,Wunderground v.1.15,2013-06-11 21:05:00,
2013-06-11 17:10:00,79.6,68.1,29.80,West,275,3.0,4.0,68,0.00,,,0.00,Wunderground v.1.15,2013-06-11 21:10:00,
2013-06-11 17:15:00,79.6,67.7,29.81,WNW,293,6.0,6.0,67,0.00,,,0.00,Wunderground v.1.15,2013-06-11 21:15:00,
2013-06-11 17:20:00,79.3,66.5,29.81,WNW,291,4.0,4.0,65,0.00,,,0.00,Wunderground v.1.15,2013-06-11 21:20:00,
2013-06-11 17:25:00,78.9,66.1,29.80,West,269,5.0,7.0,65,0.00,,,0.00,Wunderground v.1.15,2013-06-11 21:25:00,
2013-06-11 17:30:00,78.7,65.9,29.80,West,267,4.0,5.0,65,0.00,,,0.00,Wunderground v.1.15,2013-06-11 21:30:00,
2013-06-11 17:35:00,78.5,66.6,29.80,West,269,4.0,7.0,67,0.00,,,0.00,Wunderground v.1.15,2013-06-11 21:35:00,
2013-06-11 17:40:00,79.4,67.5,29.80,NW,320,8.0,8.0,67,0.00,,,0.00,Wunderground v.1.15,2013-06-11 21:40:00,
2013-06-11 17:45:00,80.2,66.9,29.80,West,269,5.0,8.0,64,0.00,,,0.00,Wunderground v.1.15,2013-06-11 21:45:00,
2013-06-11 17:50:00,79.7,66.0,29.80,West,272,6.0,6.0,63,0.00,,,0.00,Wunderground v.1.15,2013-06-11 21:50:00,
2013-06-11 17:55:00,78.7,65.9,29.80,West,277,3.0,7.0,65,0.00,,,0.00,Wunderground v.1.15,2013-06-11 21:55:00,
2013-06-11 18:00:00,78.3,65.6,29.80,WNW,303,7.0,8.0,65,0.00,,,0.00,Wunderground v.1.15,2013-06-11 22:00:00,
2013-06-11 18:05:00,78.1,65.8,29.80,WNW,286,3.0,9.0,66,0.00,,,0.00,Wunderground v.1.15,2013-06-11 22:05:00,
2013-06-11 18:10:00,77.8,66.0,29.80,West,277,3.0,5.0,67,0.00,,,0.00,Wunderground v.1.15,2013-06-11 22:10:00,
2013-06-11 18:15:00,77.6,66.2,29.80,NW,315,6.0,6.0,68,0.00,,,0.00,Wunderground v.1.15,2013-06-11 22:15:00,
2013-06-11 18:20:00,77.5,65.7,29.80,West,262,7.0,10.0,67,0.00,,,0.00,Wunderground v.1.15,2013-06-11 22:20:00,
2013-06-11 18:25:00,77.7,65.9,29.80,West,279,3.0,10.0,67,0.00,,,0.00,Wunderground v.1.15,2013-06-11 22:25:00,
2013-06-11 18:31:00,78.1,66.7,29.79,West,281,6.0,7.0,68,0.00,,,0.00,Wunderground v.1.15,2013-06-11 22:31:00,
2013-06-11 18:35:00,78.5,66.6,29.80,WNW,295,5.0,7.0,67,0.00,,,0.00,Wunderground v.1.15,2013-06-11 22:35:00,
2013-06-11 18:41:00,78.6,66.7,29.80,West,259,1.0,4.0,67,0.00,,,0.00,Wunderground v.1.15,2013-06-11 22:41:00,
2013-06-11 18:46:00,78.6,66.7,29.80,West,278,4.0,10.0,67,0.00,,,0.00,Wunderground v.1.15,2013-06-11 22:46:00,
2013-06-11 18:51:00,78.5,67.1,29.80,West,263,3.0,4.0,68,0.00,,,0.00,Wunderground v.1.15,2013-06-11 22:51:00,
2013-06-11 18:56:00,78.4,67.0,29.80,WSW,257,7.0,10.0,68,0.00,,,0.00,Wunderground v.1.15,2013-06-11 22:56:00,
2013-06-11 19:01:00,78.4,67.0,29.80,West,277,4.0,10.0,68,0.00,,,0.00,Wunderground v.1.15,2013-06-11 23:01:00,
2013-06-11 19:06:00,78.3,66.0,29.81,West,266,3.0,10.0,66,0.00,,,0.00,Wunderground v.1.15,2013-06-11 23:06:00,
2013-06-11 19:11:00,78.0,65.3,29.81,WSW,256,9.0,9.0,65,0.00,,,0.00,Wunderground v.1.15,2013-06-11 23:11:00,
2013-06-11 19:16:00,77.9,65.2,29.82,West,281,5.0,10.0,65,0.00,,,0.00,Wunderground v.1.15,2013-06-11 23:16:00,
2013-06-11 19:21:00,77.6,64.9,29.82,WNW,285,9.0,9.0,65,0.00,,,0.00,Wunderground v.1.15,2013-06-11 23:21:00,
2013-06-11 19:26:00,77.5,64.8,29.82,West,271,7.0,12.0,65,0.00,,,0.00,Wunderground v.1.15,2013-06-11 23:26:00,
2013-06-11 19:31:00,77.2,65.4,29.82,West,280,4.0,6.0,67,0.00,,,0.00,Wunderground v.1.15,2013-06-11 23:31:00,
2013-06-11 19:36:00,77.1,64.9,29.82,West,280,2.0,9.0,66,0.00,,,0.00,Wunderground v.1.15,2013-06-11 23:36:00,
2013-06-11 19:41:00,77.1,65.3,29.82,West,259,3.0,4.0,67,0.00,,,0.00,Wunderground v.1.15,2013-06-11 23:41:00,
2013-06-11 19:46:00,76.8,65.4,29.82,NW,304,3.0,4.0,68,0.00,,,0.00,Wunderground v.1.15,2013-06-11 23:46:00,
2013-06-11 19:51:00,76.7,65.3,29.82,West,279,2.0,3.0,68,0.00,,,0.00,Wunderground v.1.15,2013-06-11 23:51:00,
2013-06-11 19:56:00,76.6,65.2,29.82,West,263,3.0,5.0,68,0.00,,,0.00,Wunderground v.1.15,2013-06-11 23:56:00,
2013-06-11 20:01:00,76.6,65.2,29.82,West,259,1.0,4.0,68,0.00,,,0.00,Wunderground v.1.15,2013-06-12 00:01:00,
2013-06-11 20:06:00,76.4,65.1,29.81,WNW,282,2.0,4.0,68,0.00,,,0.00,Wunderground v.1.15,2013-06-12 00:06:00,
2013-06-11 20:11:00,76.1,64.8,29.81,West,274,3.0,3.0,68,0.00,,,0.00,Wunderground v.1.15,2013-06-12 00:11:00,
2013-06-11 20:16:00,75.8,65.3,29.81,West,274,2.0,3.0,70,0.00,,,0.00,Wunderground v.1.15,2013-06-12 00:16:00,
2013-06-11 20:21:00,75.5,65.0,29.82,West,277,4.0,4.0,70,0.00,,,0.00,Wunderground v.1.15,2013-06-12 00:21:00,
2013-06-11 20:26:00,75.3,65.2,29.82,West,276,0.0,5.0,71,0.00,,,0.00,Wunderground v.1.15,2013-06-12 00:26:00,
2013-06-11 20:31:00,75.2,65.1,29.83,West,268,2.0,3.0,71,0.00,,,0.00,Wunderground v.1.15,2013-06-12 00:31:00,
2013-06-11 20:37:00,75.1,65.1,29.83,West,281,1.0,5.0,71,0.00,,,0.00,Wunderground v.1.15,2013-06-12 00:37:00,
2013-06-11 20:42:00,75.0,65.0,29.83,West,277,3.0,4.0,71,0.00,,,0.00,Wunderground v.1.15,2013-06-12 00:42:00,
2013-06-11 20:47:00,75.0,65.0,29.83,West,275,1.0,4.0,71,0.00,,,0.00,Wunderground v.1.15,2013-06-12 00:47:00,
2013-06-11 20:52:00,75.0,65.0,29.83,West,265,1.0,2.0,71,0.00,,,0.00,Wunderground v.1.15,2013-06-12 00:52:00,
2013-06-11 20:57:00,74.7,65.1,29.83,West,262,0.0,2.0,72,0.00,,,0.00,Wunderground v.1.15,2013-06-12 00:57:00,
2013-06-11 21:02:00,74.4,65.2,29.83,SW,217,0.0,1.0,73,0.00,,,0.00,Wunderground v.1.15,2013-06-12 01:02:00,
2013-06-11 21:07:00,74.3,65.1,29.83,SSW,211,0.0,4.0,73,0.00,,,0.00,Wunderground v.1.15,2013-06-12 01:07:00,
2013-06-11 21:12:00,74.2,65.0,29.83,SSW,211,0.0,2.0,73,0.00,,,0.00,Wunderground v.1.15,2013-06-12 01:12:00,
2013-06-11 21:17:00,74.0,65.2,29.83,South,188,1.0,4.0,74,0.00,,,0.00,Wunderground v.1.15,2013-06-12 01:17:00,
2013-06-11 21:22:00,73.9,65.1,29.83,South,188,1.0,2.0,74,0.00,,,0.00,Wunderground v.1.15,2013-06-12 01:22:00,
2013-06-11 21:27:00,73.9,65.1,29.83,South,188,1.0,4.0,74,0.00,,,0.00,Wunderground v.1.15,2013-06-12 01:27:00,
2013-06-11 21:32:00,73.9,65.1,29.84,South,185,1.0,2.0,74,0.00,,,0.00,Wunderground v.1.15,2013-06-12 01:32:00,
2013-06-11 21:37:00,73.7,64.9,29.83,SSW,213,1.0,2.0,74,0.00,,,0.00,Wunderground v.1.15,2013-06-12 01:37:00,
2013-06-11 21:42:00,73.8,65.0,29.84,SW,214,1.0,2.0,74,0.00,,,0.00,Wunderground v.1.15,2013-06-12 01:42:00,
2013-06-11 21:47:00,73.8,65.0,29.84,South,183,1.0,4.0,74,0.00,,,0.00,Wunderground v.1.15,2013-06-12 01:47:00,
2013-06-11 21:52:00,73.7,64.9,29.84,SSW,194,1.0,2.0,74,0.00,,,0.00,Wunderground v.1.15,2013-06-12 01:52:00,
2013-06-11 21:57:00,73.8,65.0,29.84,WSW,242,3.0,3.0,74,0.00,,,0.00,Wunderground v.1.15,2013-06-12 01:57:00,
2013-06-11 22:02:00,73.7,64.9,29.84,SSW,204,0.0,4.0,74,0.00,,,0.00,Wunderground v.1.15,2013-06-12 02:02:00,
2013-06-11 22:07:00,73.7,64.9,29.84,West,271,2.0,4.0,74,0.00,,,0.00,Wunderground v.1.15,2013-06-12 02:07:00,
2013-06-11 22:12:00,73.7,64.9,29.85,West,274,3.0,3.0,74,0.00,,,0.00,Wunderground v.1.15,2013-06-12 02:12:00,
2013-06-11 22:17:00,73.7,64.9,29.85,West,279,2.0,4.0,74,0.00,,,0.00,Wunderground v.1.15,2013-06-12 02:17:00,
2013-06-11 22:22:00,73.7,64.5,29.85,South,181,3.0,5.0,73,0.00,,,0.00,Wunderground v.1.15,2013-06-12 02:22:00,
2013-06-11 22:27:00,73.6,64.8,29.85,West,270,3.0,5.0,74,0.00,,,0.00,Wunderground v.1.15,2013-06-12 02:27:00,
2013-06-11 22:32:00,73.5,64.3,29.86,West,261,3.0,3.0,73,0.00,,,0.00,Wunderground v.1.15,2013-06-12 02:32:00,
2013-06-11 22:37:00,73.6,64.4,29.86,West,267,3.0,4.0,73,0.00,,,0.00,Wunderground v.1.15,2013-06-12 02:37:00,
2013-06-11 22:42:00,73.5,64.3,29.86,SW,225,1.0,3.0,73,0.00,,,0.00,Wunderground v.1.15,2013-06-12 02:42:00,
2013-06-11 22:47:00,73.4,64.6,29.86,West,263,1.0,3.0,74,0.00,,,0.00,Wunderground v.1.15,2013-06-12 02:47:00,
2013-06-11 22:52:00,73.5,64.3,29.86,South,179,4.0,4.0,73,0.00,,,0.00,Wunderground v.1.15,2013-06-12 02:52:00,
2013-06-11 22:57:00,73.5,64.3,29.86,SSW,192,1.0,4.0,73,0.00,,,0.00,Wunderground v.1.15,2013-06-12 02:57:00,
2013-06-11 23:02:00,73.5,64.3,29.86,SW,225,2.0,2.0,73,0.00,,,0.00,Wunderground v.1.15,2013-06-12 03:02:00,
2013-06-11 23:07:00,73.3,64.5,29.86,SSW,210,0.0,2.0,74,0.00,,,0.00,Wunderground v.1.15,2013-06-12 03:07:00,
2013-06-11 23:12:00,73.4,64.2,29.86,SSW,192,1.0,2.0,73,0.00,,,0.00,Wunderground v.1.15,2013-06-12 03:12:00,
2013-06-11 23:17:00,73.4,64.6,29.86,SW,236,1.0,3.0,74,0.00,,,0.00,Wunderground v.1.15,2013-06-12 03:17:00,
2013-06-11 23:22:00,73.5,64.3,29.86,WSW,239,1.0,2.0,73,0.00,,,0.00,Wunderground v.1.15,2013-06-12 03:22:00,
2013-06-11 23:27:00,73.4,64.2,29.86,WSW,248,2.0,3.0,73,0.00,,,0.00,Wunderground v.1.15,2013-06-12 03:27:00,
2013-06-11 23:32:00,73.5,64.3,29.86,WSW,250,1.0,3.0,73,0.00,,,0.00,Wunderground v.1.15,2013-06-12 03:32:00,
2013-06-11 23:37:00,73.4,64.6,29.86,WSW,250,1.0,3.0,74,0.00,,,0.00,Wunderground v.1.15,2013-06-12 03:37:00,
2013-06-11 23:42:00,73.4,64.6,29.86,WSW,250,1.0,2.0,74,0.00,,,0.00,Wunderground v.1.15,2013-06-12 03:42:00,
2013-06-11 23:48:00,73.3,64.5,29.86,SSW,199,0.0,4.0,74,0.00,,,0.00,Wunderground v.1.15,2013-06-12 03:48:00,
2013-06-11 23:53:00,73.3,64.5,29.86,SSW,194,1.0,3.0,74,0.00,,,0.00,Wunderground v.1.15,2013-06-12 03:53:00,
2013-06-11 23:58:00,73.3,64.5,29.86,South,190,0.0,4.0,74,0.00,,,0.00,Wunderground v.1.15,2013-06-12 03:58:00,